www.pogodaiklimat.ru

Погода и климат >> Архив погоды >> Украина >> Одесса


АРХИВ ПОГОДЫ в Одессе

Время (UTC), дата Ветер
(напр.,м/с)
 
Видим.   Явления Облачность Т
(С)
Тd
(С)
f
(%)
Тe
(С)
Тes
(С)
Комфортность P
(гПа)
Po
(гПа)
Тmin
(С)
Tmax
(С)
R
(мм)
R24
(мм)
S
(см)
06 22.04 З 3 16 км 6/0
[Ac trans Ci fib]
+7.3 +1.3 66 +5 +8 прохладно 1016.8 1011.6 +2.2 0.3
09 22.04 З 3 30 км 9/5 1230 м
[Sc Ac trans]
+10.7 +1.9 54 +9 +12 по сезону 1017.1 1012.0
12 22.04 З 4 30 км 6/3 600 м
[Sc Ac trans]
+13.6 +3.0 49 +12 +17 по сезону 1015.5 1010.4
15 22.04 ЮЗ 3 40 км 9/3 600 м
[Sc Ac trans]
+12.0 +3.1 54 +11 +11 по сезону 1013.8 1008.7
18 22.04 Ю 2 17 км 8/0
[Ac trans]
+8.8 +3.4 69 +7 +7 по сезону 1013.8 1008.7 +13.9
21 22.04 ЮЗ 3 18 км 9/0
[Ac trans]
+7.3 +4.5 82 +4 +4 прохладно 1013.1 1007.9
00 23.04 З 1 24 км 10/0
[Ac und]
+6.4 +4.1 85 +5 +5 по сезону 1011.0 1005.8
03 23.04 З 2 14 км 10/0 1500 м
[Ac und]
+6.1 +4.2 88 +4 +4 прохладно 1009.7 1004.5
06 23.04 СЗ 1 30 км {ливн. осадки} 10/3 600 м
[Sc Ac trans Ci fib]
+9.2 +3.9 69 +9 +11 по сезону 1009.5 1004.4 +5.8 0.0
09 23.04 С 2 23 км 10/4 600 м
[Sc Ac trans]
+12.0 +5.8 66 +11 +15 по сезону 1009.2 1004.1
12 23.04 СЗ 2 35 км 10/8 1230 м
[Sc diur, vesp Ac trans]
+11.7 +3.0 55 +11 +12 по сезону 1008.8 1003.7
15 23.04 СЗ 3 30 км слабый ливневой дождь 10/10 600 м
[Cb calv]
+8.0 +2.8 70 +6 +6 прохладно 1010.6 1005.5
18 23.04 З 2 21 км {ливн. осадки} 8/6 1260 м
[Sc Ac trans Ci fib]
+6.7 +3.6 81 +5 +5 прохладно 1012.1 1006.9 +13.1 0.1
21 23.04 З 2 28 км 8/0
[Ac trans Cs]
+5.5 +2.6 82 +3 +3 холодно 1012.8 1007.6
00 24.04 З 3 20 км ясно +4.0 +0.9 80 0 0 холодно 1013.3 1008.1
03 24.04 З 3 50 км 6/0
[Ci fib]
+2.9 +0.2 82 -1 -1 очень
холодно
1014.6 1009.3
06 24.04 СЗ 4 27 км ясно +6.9 +0.5 64 +4 +8 холодно 1016.5 1011.3 +2.8
09 24.04 СЗ 3 45 км 8/8 1350 м
[Sc diur, vesp]
+9.8 +0.4 52 +8 +10 прохладно 1017.4 1012.3
12 24.04 З 3 30 км 10/8 1500 м
[Sc diur, vesp Ci fib]
+12.0 -0.3 43 +11 +13 по сезону 1017.7 1012.6
15 24.04 З 3 40 км {ливн. осадки} 8/8 600 м
[Sc diur, vesp]
+11.0 -2.0 40 +10 +10 по сезону 1018.4 1013.3
18 24.04 З 1 45 км {ливн. осадки} 4/3 600 м
[Sc Ac trans]
+7.2 +0.6 63 +7 +7 прохладно 1021.3 1016.1 +12.8 0.0
21 24.04 З 2 50 км ясно +4.7 +1.1 77 +2 +2 холодно 1022.8 1017.5
00 25.04 З 2 50 км ясно +4.0 +1.4 83 +1 +1 холодно 1023.1 1017.8
03 25.04 З 3 50 км ясно +5.3 +0.9 73 +2 +2 холодно 1023.5 1018.2
06 25.04 Ю 5 29 км ясно +8.1 +6.6 90 +4 +7 холодно 1024.2 1019.0 +3.6
09 25.04 Ю 6 28 км 3/3 300 м
[St]
+9.5 +7.4 87 +6 +10 прохладно 1024.3 1019.1
12 25.04 Ю 6 21 км 6/0
[Ci]
+10.7 +7.6 81 +8 +12 прохладно 1023.2 1018.1
15 25.04 Ю 3 23 км 4/0
[Ci fib]
+9.4 +4.9 73 +7 +9 прохладно 1022.7 1017.5
18 25.04 Ю 5 22 км ясно +7.9 +4.4 79 +4 +4 холодно 1022.9 1017.7 +11.7
21 25.04 Ю 3 22 км ясно +7.3 +4.0 80 +4 +4 прохладно 1023.5 1018.3
00 26.04 Ю 3 16 км ясно +6.9 +4.8 86 +4 +4 прохладно 1023.2 1018.0
03 26.04 ЮЗ 3 14 км ясно +6.8 +5.2 90 +4 +4 прохладно 1022.8 1017.6
06 26.04 Ю 5 18 км ясно +8.8 +5.9 82 +5 +9 прохладно 1023.5 1018.3 +6.7
09 26.04 Ю 6 11 км 3/3 600 м
[Cu hum]
+9.5 +6.9 84 +6 +10 холодно 1024.3 1019.1
12 26.04 Ю 6 12 км 3/3 600 м
[Cu hum]
+9.2 +6.8 85 +5 +9 очень
холодно
1023.6 1018.4
15 26.04 Ю 6 10 км 4/3 600 м
[Cu hum Ci fib]
+8.1 +5.9 86 +4 +5 холодно 1022.1 1016.9
18 26.04 Ю 4 6000 м дымка 8/6 240 м
[St Ci fib]
+7.4 +6.3 93 +4 +4 холодно 1021.8 1016.6 +9.7
21 26.04 ЮЗ 4 6000 м дымка 8/8 150 м
[St]
+7.9 +7.0 94 +4 +4 прохладно 1022.0 1016.8
00 27.04 ЮЗ 2 6000 м дымка 8/8 120 м
[St]
+7.3 +6.4 94 +5 +5 прохладно 1021.2 1016.0
03 27.04 Ю 2 5000 м дымка 10/10 90 м
[St]
+6.8 +6.1 95 +4 +4 прохладно 1021.2 1016.0
06 27.04 Ю 5 26 км 3/0
[Ci fib]
+10.8 +4.0 63 +8 +11 по сезону 1021.8 1016.7 +6.7
09 27.04 Ю 3 40 км 6/0
[Ci fib]
+9.9 +7.1 83 +8 +19 опасность
простуды
1022.0 1016.8
12 27.04 Ю 4 45 км 9/0
[Ci fib]
+10.4 +5.6 72 +8 +15 холодно 1021.3 1016.2
15 27.04 Ю 3 30 км 10/0
[Ci]
+9.1 +6.0 81 +7 +9 прохладно 1020.5 1015.3
18 27.04 Ю 1 45 км 8/0
[Ci]
+7.8 +5.1 83 +7 +7 прохладно 1020.3 1015.1 +10.9
21 27.04 ЮЗ 2 35 км ясно +7.4 +6.1 91 +5 +5 прохладно 1020.3 1015.1
00 28.04 Ю 2 30 км ясно +7.6 +6.5 93 +5 +5 прохладно 1019.6 1014.4
03 28.04 Ю 2 20 км 6/0
[Ci fib]
+7.7 +6.8 94 +6 +6 прохладно 1019.1 1013.9
06 28.04 Ю 3 30 км 6/0
[Ci fib]
+10.6 +7.2 79 +9 +13 по сезону 1019.7 1014.6 +7.1
09 28.04 Ю 3 25 км 3/0
[Ci fib]
+11.9 +7.1 72 +10 +23 опасность
простуды
1019.6 1014.5
12 28.04 Ю 4 35 км 3/0
[Ci fib]
+11.5 +8.2 80 +9 +17 прохладно 1018.9 1013.8
15 28.04 Ю 4 40 км 3/0
[Ci fib]
+11.3 +6.2 71 +9 +11 прохладно 1017.6 1012.5
18 28.04 Ю 3 50 км 9/0
[Ci fib]
+9.0 +6.8 86 +7 +7 прохладно 1016.9 1011.8 +12.3
21 28.04 Ю 2 45 км 4/0
[Ci fib]
+9.5 +6.0 79 +8 +8 по сезону 1016.4 1011.3
00 29.04 Ю 2 35 км ясно +8.1 +6.8 91 +6 +6 по сезону 1016.2 1011.0
03 29.04 ЮЗ 2 30 км 6/0
[Ci]
+8.9 +7.4 90 +7 +7 по сезону 1016.1 1011.0

 

Местоположение метеостанции Одесса (Одесская область, Украина): широта 46.43 долгота 30.77 высота над уровнем моря 42 м.

В архиве по умолчанию представлена погода в Одессе за последнюю неделю. Архивные данные за месяц целиком и за предыдущие месяцы, начиная с января 2011 года, Вы можете получить, выбрав интересующий диапазон дат из раскрывающегося списка и нажав кнопку "Ввод!".

Внимание! Время в таблицах - всемирное. Для получения местного времени необходимо прибавить поправку, которая в Одессе равна 2 ч.

Смотрите также архив погоды в соседних городах и на ближайших метеорологических станциях:

Погода в Ильичёвске (Одесская область, Украина) (6 км)
Погода в Белгород-Днестровском (Одесская область, Украина) (41 км)
Погода в Очакове (Николаевская область, Украина) (64 км)
Погода в Сербке (Одесская область, Украина) (66 км)
Погода в Раздельной (Одесская область, Украина) (70 км)
Погода в Заставе (Одесская область, Украина) (72 км)
Погода в Сарате (Одесская область, Украина) (96 км)
Погода в Штефан Водэ (Молдова) (99 км)
Погода в Тирасполе (Молдова) (103 км)
Погода в Николаеве (Николаевская область, Украина) (112 км)

Пояснения к столбцам:

Ветер - указаны скорость ветра в м/с - средняя за 10 мин, порывы в срок и между сроками (в фигурных скобках) и направление, откуда дует ветер: С - северный, СВ - северо-восточный, В - восточный, ЮВ - юго-восточный, Ю - южный, ЮЗ - юго-западный, З - западный, СЗ - северо-западный.
Видимость - горизонтальная дальность видимости в метрах или километрах. При видимости от 1 до 10 км при отсутствии осадков обычно наблюдается дымка, при ухудшении видимости до 1 км и менее - туман. В сухую погоду видимость может ухудшаться дымом, пылью или мглою.
Явления - указаны атмосферные явления, наблюдавшиеся в срок или в последний час перед сроком; фигурными скобками обозначены явления, наблюдавшиеся между сроками (за 1-3 часа до срока); квадратными скобками обозначены град или гололедные отложения с указанием их диаметра в мм.
Облачность - указаны через наклонную черту общая и нижняя облачность в баллах и высота нижней границы облаков в метрах; квадратными скобками обозначены формы облаков: Ci - перистые, Cs - перисто-слоистые, Cc - перисто-кучевые, Ac - высококучевые, As - высокослоистые, Sc - слоисто-кучевые, Ns - слоисто-дождевые, Cu - кучевые, Cb - кучево-дождевые. Подробнее классификацию облаков см. в Атласе облаков (PDF).
T - Температура воздуха - температура, измеренная на высоте 2 м над землей.
Td - Температура точки росы - температура, при понижении до которой содержащийся в воздухе водяной пар достигнет насыщения.
f - Относительная влажность воздуха - влажноcть воздуха, измеренная на высоте 2 м над землей.
Te - Эффективная температура - температура, которую ощущает одетый по сезону человек в тени. Характеристика душности погоды. При расчете учитывается влияние влажности воздуха и скорости ветра на теплоощущения человека.
Tes - Эффективная температура на солнце - температура, которую ощущает человек, с поправкой на солнечный нагрев. Характеристика знойности погоды. Зависит от высоты солнца над горизонтом, облачности и скорости ветра. Ночью, в пасмурную погоду, а также при ветре 12 м/с и более поправка равна нулю.
P - Атмосферное давление - приведенное к уровню моря атмосферное давление.
Po - Атмосферное давление - измеренное на уровне метеостанции атмосферное давление.
Tmin - Минимальная температура - минимум температуры воздуха на высоте 2 м над землей.
Tmax - Максимальная температура - максимум температуры воздуха на высоте 2 м над землей.
R - Количество осадков - Количество выпавших осадков за период времени, мм. При наведении курсора мыши на число - период времени, за который выпало указанное количество осадков.
R24 - Количество осадков - Количество выпавших осадков за 24 часа, мм.
S - Снежный покров - Высота снежного покрова, см. При наведении курсора мыши на число - состояние снежного покрова и степень покрытия местности в баллах.